Regional Weather Roundup
Issued by NWS

Home | Current Version | Previous Version | Text Only | Print | Product List | Glossary On
Versions: 1 2 3 4 5 6 7 8 9 10 11 12 13 14 15 16 17 18 19 20 21 22 23 24 25 26 27 28 29 30 31 32 33 34 35 36 37 38 39 40 41 42 43 44 45 46 47 48 49 50
000
ASUS45 KSLC 261410
RWRUT

UTAH REGIONAL WEATHER ROUNDUP
NATIONAL WEATHER SERVICE SALT LAKE CITY UT
800 AM MDT TUE JUL 26 2016

UTZ001>011-023>025-261500-

NORTHERN UTAH

CITY           SKY/WX    TMP DP  RH WIND       PRES   REMARKS
BRIGHAM CITY     N/A     68  38  33 NW8       30.08R
DUGWAY         MOSUNNY   81  39  22 S7        30.08
HILL AFB       MOSUNNY   74  39  28 E17       30.10R
LOGAN          SUNNY     63  47  55 NE5       30.12R
OGDEN          MOSUNNY   73  40  30 SE6       30.07R
PROVO AIRPORT  MOSUNNY   73  46  38 SE5       30.11R
SALT LAKE CITY MOSUNNY   82  41  23 N5        30.06R
VERNAL         SUNNY     66  43  43 CALM      30.20R
WENDOVER       MOSUNNY   72  39  30 CALM      30.07R
HEBER CITY     SUNNY     61  45  55 CALM      30.20S

$$

UTZ012>022-026-027-261500-

SOUTHERN/CENTRAL UTAH

CITY           SKY/WX    TMP DP  RH WIND       PRES   REMARKS
BLANDING       CLOUDY    73  48  41 N6        30.34R
BRYCE CANYON   MOSUNNY   57  46  66 W5        30.40S
CEDAR CITY     SUNNY     71  47  42 N6        30.22R
DELTA          SUNNY     73  36  25 CALM      30.12R
MILFORD        SUNNY     73  45  36 S14       30.15R
MOAB/CYNLANDS  PTSUNNY   77  43  29 CALM      30.12R
PRICE          PTSUNNY   71  38  29 CALM      30.23R
ST GEORGE      SUNNY     84  46  26 SE8       30.05R

$$

REGIONAL REPORTS     COLORADO/ARIZONA

CITY           SKY/WX    TMP DP  RH WIND       PRES   REMARKS
CRAIG, CO      CLOUDY    62  42  47 CALM      30.29R
GRAND JUNCTION PTSUNNY   77  44  30 E12       30.17R
RIFLE          CLOUDY    69  44  40 E5        30.25R
MONTROSE       MOSUNNY   71  44  37 SE7       30.27R
CORTEZ         SUNNY     69  54  58 W3        30.27R
PAGE, AZ       MOSUNNY   82  46  28 CALM      30.13R
GRAND CANYON   CLOUDY    68  46  45 NE7       30.33R
KINGMAN        MOSUNNY   85  48  27 SE3       30.06R
FLAGSTAFF      CLOUDY    58  57  97 CALM      30.36R

$$

REGIONAL REPORTS    NEVADA/IDAHO/WYOMING

CITY           SKY/WX    TMP DP  RH WIND       PRES   REMARKS
LAS VEGAS, NV  MOSUNNY   89  53  29 W7        29.89R
ELY            SUNNY     56  24  29 S9        30.26R
ELKO           MOSUNNY   59  24  26 MISG      30.18R
POCATELLO, ID  SUNNY     62  34  35 N6        30.12R
BURLEY         SUNNY     58  48  69 CALM      30.08R
EVANSTON, WY   CLOUDY    59  35  40 N7        30.32S
ROCK SPRINGS   CLOUDY    67  34  29 NE6       30.28S
KEMMERER         N/A     55  32  41 NE3       30.34R

$$



USA.gov is the U.S. government's official web portal to all federal, state and local government web resources and services.